GSAT0206 (GALILEO 10)

Last updated on Sat Sep 05 2026 00:02:48 GMT+0000 (Coordinated Universal Time)

1 40890U 15045B 26246.47285831 .00000053 00000+0 00000+0 0 9990 2 40890 54.9280 219.4431 0002446 344.5476 15.4227 1.70473090 68370
UTC large
Height (km)
Speed (km/s)
/
Latitude / Longitude
Inclination (degrees)
Orbital Period (minutes)
Azimuth
Elevation
Range (km)
Doppler Factor

Next 0 passes for location: London (51.5072 / 0.1276)

No passes found over London.
GSAT0206 (GALILEO 10)